Date String (YYYY-MM-DD hh:mm:ss) UTC,Instrument flags,absolute air pressure of the measurement (hPa),sample flow rate (lpm),inlet stack bypass flow (lpm),air temperature of the measurement (°C),ambient temperature measured by the external sensor (°C),aerosol sample conditioner tube jacket temperature (°C),OPC LED temperature (°C),internal box temperature (°C),relative humidity of the measurement (%),span deviation,mass concentration of particles derived from Lorenz-Mie calculation of OPC scattering (μg/m³),mass concentration of particles derived from Lorenz-Mie calculation of OPC scattering (μg/m³),mass concentration of particles derived from Lorenz-Mie calculation of OPC scattering (μg/m³)
DateTimeUTC,F1_M11,P_M11,Q1_M11,Q2_M11,T1_M11,T2_M11,T3_M11,T4_M11,T5_M11,U1_M11,ZSPAN_M11,X2_M11,X0_M11,X1_M11
2023-09-04 16:00:00,SystemResetWarning,0824.1,5.04,000.00,028.7,025.0,000.0,036.9,029.5,35.1,0000.0,0002.92,0005.46,0002.31
2023-09-04 16:01:00,SystemResetWarning,0824.1,4.97,000.00,028.7,024.8,000.0,036.8,029.5,34.5,0000.0,0002.86,0004.87,0002.32
2023-09-04 16:02:00,SystemResetWarning,0824.1,5.01,000.00,028.7,025.0,000.0,036.8,029.5,34.8,0000.0,0002.85,0005.22,0002.31
2023-09-04 16:03:00,SystemResetWarning,0824.1,5.00,000.00,028.8,025.4,000.0,036.8,029.6,34.8,0000.0,0002.90,0005.43,0002.32
2023-09-04 16:04:00,SystemResetWarning,0824.2,4.99,000.00,028.9,025.8,000.0,036.9,029.8,35.5,0000.0,0002.96,0005.79,0002.31
2023-09-04 16:05:00,SystemResetWarning,0824.1,5.00,000.00,029.1,026.1,000.0,036.9,030.0,34.6,0000.0,0003.00,0005.87,0002.31
2023-09-04 16:06:00,SystemResetWarning,0824.1,5.00,000.00,029.3,026.4,000.0,037.0,030.1,33.4,0000.0,0002.98,0005.89,0002.30
2023-09-04 16:07:00,SystemResetWarning,0824.2,5.01,000.00,029.4,026.7,000.0,037.0,030.2,33.2,0000.0,0003.00,0005.98,0002.30
2023-09-04 16:08:00,SystemResetWarning,0824.1,4.99,000.00,029.5,026.9,000.0,037.1,030.2,32.8,0000.0,0003.02,0006.10,0002.30
2023-09-04 16:09:00,SystemResetWarning,0824.0,4.99,000.00,029.5,026.7,000.0,037.1,030.2,33.0,0000.0,0003.03,0006.04,0002.32
2023-09-04 16:10:00,SystemResetWarning,0824.0,5.00,000.00,029.5,025.5,000.0,037.1,029.7,33.1,0000.0,0003.04,0005.92,0002.33
2023-09-04 16:11:00,SystemResetWarning,0824.0,5.00,000.00,029.4,024.8,000.0,037.1,029.5,33.1,0000.0,0003.05,0006.04,0002.33
2023-09-04 16:12:00,SystemResetWarning,0824.0,5.01,000.00,029.3,024.8,000.0,037.1,029.4,33.6,0000.0,0003.02,0006.01,0002.32
2023-09-04 16:13:00,SystemResetWarning,0824.0,5.00,000.00,029.2,025.1,000.0,037.2,029.5,33.6,0000.0,0003.01,0005.33,0002.32
2023-09-04 16:14:00,SystemResetWarning,0824.0,5.01,000.00,029.2,025.5,000.0,037.2,029.6,33.4,0000.0,0003.02,0005.30,0002.33
2023-09-04 16:15:00,SystemResetWarning,0824.0,5.00,000.00,029.2,025.8,000.0,037.2,029.8,33.4,0000.0,0002.97,0005.32,0002.32
2023-09-04 16:16:00,SystemResetWarning,0824.0,4.99,000.00,029.2,026.2,000.0,037.3,029.9,33.5,0000.0,0002.93,0005.37,0002.32
2023-09-04 16:17:00,SystemResetWarning,0824.0,4.99,000.00,029.2,026.5,000.0,037.3,030.0,34.0,0000.0,0002.91,0005.26,0002.33
2023-09-04 16:18:00,SystemResetWarning,0824.0,5.00,000.00,029.2,026.7,000.0,037.3,030.1,33.5,0000.0,0002.89,0005.27,0002.34
2023-09-04 16:19:00,SystemResetWarning,0824.0,5.00,000.00,029.2,026.7,000.0,037.3,030.1,33.2,0000.0,0002.87,0005.13,0002.35
2023-09-04 16:20:00,SystemResetWarning,0824.0,5.00,000.00,029.2,025.5,000.0,037.2,029.7,32.4,0000.0,0002.84,0004.98,0002.35
2023-09-04 16:21:00,SystemResetWarning,0824.0,5.00,000.00,029.1,024.7,000.0,037.1,029.5,32.3,0000.0,0002.82,0004.92,0002.36
2023-09-04 16:22:00,SystemResetWarning,0824.0,5.00,000.00,029.0,024.7,000.0,037.1,029.4,32.2,0000.0,0002.81,0004.78,0002.37
2023-09-04 16:23:00,SystemResetWarning,0824.0,5.00,000.00,028.9,025.0,000.0,037.1,029.4,32.1,0000.0,0002.86,0004.92,0002.37
2023-09-04 16:24:00,SystemResetWarning,0824.0,5.01,000.00,028.8,025.3,000.0,037.1,029.6,32.0,0000.0,0002.87,0004.93,0002.37
2023-09-04 16:25:00,SystemResetWarning,0824.0,4.98,000.00,028.8,025.7,000.0,037.1,029.7,31.5,0000.0,0002.84,0005.15,0002.36
2023-09-04 16:26:00,SystemResetWarning,0824.0,4.99,000.00,028.8,026.1,000.0,037.1,029.8,31.6,0000.0,0002.82,0005.06,0002.37
2023-09-04 16:27:00,SystemResetWarning,0824.0,5.00,000.00,028.8,026.4,000.0,037.1,029.9,30.5,0000.0,0002.83,0004.84,0002.37
2023-09-04 16:28:00,SystemResetWarning,0824.0,5.02,000.00,028.9,026.7,000.0,037.1,030.0,30.9,0000.0,0002.86,0004.85,0002.37
2023-09-04 16:29:00,SystemResetWarning,0824.0,5.00,000.00,028.9,026.9,000.0,037.1,030.1,31.6,0000.0,0002.92,0005.30,0002.39
2023-09-04 16:30:00,SystemResetWarning,0824.0,4.99,000.00,028.9,026.5,000.0,037.1,029.9,32.2,0000.0,0002.97,0006.13,0002.39
2023-09-04 16:31:00,SystemResetWarning,0824.0,4.99,000.00,028.8,025.3,000.0,037.0,029.4,32.0,0000.0,0003.01,0006.20,0002.41
2023-09-04 16:32:00,SystemResetWarning,0823.9,5.01,000.00,028.7,024.7,000.0,036.9,029.3,31.8,0000.0,0003.03,0006.27,0002.41
2023-09-04 16:33:00,SystemResetWarning,0823.9,5.01,000.00,028.6,024.8,000.0,036.9,029.3,33.5,0000.0,0003.08,0006.48,0002.43
2023-09-04 16:34:00,SystemResetWarning,0823.9,5.00,000.00,028.5,025.2,000.0,036.9,029.4,33.5,0000.0,0003.06,0006.34,0002.46
2023-09-04 16:35:00,SystemResetWarning,0823.9,5.00,000.00,028.5,025.5,000.0,036.9,029.5,33.3,0000.0,0003.08,0006.44,0002.48
2023-09-04 16:36:00,SystemResetWarning,0824.0,5.01,000.00,028.5,025.9,000.0,036.9,029.7,33.7,0000.0,0003.09,0006.28,0002.51
2023-09-04 16:37:00,SystemResetWarning,0824.0,5.00,000.00,028.6,026.2,000.0,036.9,029.8,33.3,0000.0,0003.10,0005.98,0002.52
2023-09-04 16:38:00,SystemResetWarning,0823.9,5.00,000.00,028.6,026.5,000.0,036.9,029.9,33.1,0000.0,0003.11,0006.07,0002.52
2023-09-04 16:39:00,SystemResetWarning,0824.0,5.00,000.00,028.6,026.7,000.0,036.9,029.9,33.0,0000.0,0003.09,0006.00,0002.52
2023-09-04 16:40:00,SystemResetWarning,0823.9,4.98,000.00,028.6,025.8,000.0,036.8,029.6,32.9,0000.0,0003.03,0005.57,0002.51
2023-09-04 16:41:00,SystemResetWarning,0823.9,5.00,000.00,028.5,024.7,000.0,036.8,029.3,31.8,0000.0,0002.98,0004.56,0002.50
2023-09-04 16:42:00,SystemResetWarning,0823.9,5.01,000.00,028.4,024.6,000.0,036.7,029.2,31.2,0000.0,0003.00,0004.60,0002.48
2023-09-04 16:43:00,SystemResetWarning,0823.9,5.01,000.00,028.3,024.8,000.0,036.7,029.2,31.5,0000.0,0003.03,0004.69,0002.48
2023-09-04 16:44:00,SystemResetWarning,0823.9,5.00,000.00,028.3,025.2,000.0,036.7,029.3,32.3,0000.0,0003.00,0004.52,0002.46
2023-09-04 16:45:00,SystemResetWarning,0823.9,4.99,000.00,028.3,025.6,000.0,036.7,029.5,32.2,0000.0,0003.03,0004.76,0002.45
2023-09-04 16:46:00,SystemResetWarning,0823.9,5.00,000.00,028.3,026.0,000.0,036.7,029.6,32.4,0000.0,0003.00,0004.65,0002.43
2023-09-04 16:47:00,SystemResetWarning,0823.9,5.00,000.00,028.3,026.3,000.0,036.7,029.7,32.7,0000.0,0003.00,0004.51,0002.41
2023-09-04 16:48:00,SystemResetWarning,0823.9,5.00,000.00,028.4,026.6,000.0,036.7,029.8,32.3,0000.0,0002.94,0004.25,0002.40
2023-09-04 16:49:00,SystemResetWarning,0823.8,4.99,000.00,028.4,026.7,000.0,036.7,029.9,32.0,0000.0,0002.92,0004.13,0002.40
2023-09-04 16:50:00,SystemResetWarning,0823.8,4.99,000.00,028.4,026.0,000.0,036.7,029.6,31.8,0000.0,0002.92,0004.13,0002.41
2023-09-04 16:51:00,SystemResetWarning,0823.8,5.01,000.00,028.3,024.9,000.0,036.6,029.2,32.4,0000.0,0002.95,0005.21,0002.41
2023-09-04 16:52:00,SystemResetWarning,0823.7,5.01,000.00,028.2,024.6,000.0,036.5,029.2,32.7,0000.0,0002.95,0005.21,0002.41
2023-09-04 16:53:00,SystemResetWarning,0823.8,5.01,000.00,028.1,024.8,000.0,036.5,029.2,32.6,0000.0,0002.89,0005.03,0002.42
2023-09-04 16:54:00,SystemResetWarning,0823.8,5.00,000.00,028.1,025.2,000.0,036.5,029.3,32.6,0000.0,0002.85,0005.00,0002.40
2023-09-04 16:55:00,SystemResetWarning,0823.7,4.99,000.00,028.1,025.6,000.0,036.5,029.4,33.0,0000.0,0002.83,0005.88,0002.41
2023-09-04 16:56:00,SystemResetWarning,0823.8,5.01,000.00,028.1,025.9,000.0,036.5,029.5,33.4,0000.0,0002.82,0006.26,0002.40
2023-09-04 16:57:00,SystemResetWarning,0823.8,5.01,000.00,028.2,026.2,000.0,036.5,029.6,33.1,0000.0,0002.79,0006.25,0002.39
2023-09-04 16:58:00,SystemResetWarning,0823.8,5.00,000.00,028.2,026.5,000.0,036.6,029.7,32.4,0000.0,0002.78,0006.21,0002.39
2023-09-04 16:59:00,SystemResetWarning,0823.8,5.00,000.00,028.3,026.7,000.0,036.6,029.8,32.5,0000.0,0002.79,0006.23,0002.38
